Location: Auckland
(36.8500°S, 174.7800°E)
Time: 21:04:36
(UTC+13:00)

ISS - Visible Passes

Search period start: 15 March 2026 00:00
Search period end: 25 March 2026 00:00
Orbit: 417 x 426 km, 51.6° (Epoch: 14 March)

Date Brightness Start Highest point End Pass type
(mag) Time Alt. Az. Time Alt. Az. Time Alt. Az.
15 Mar -0.9 06:08:20 10° NNE 06:10:08 14° NE 06:11:57 10° E visible
17 Mar -2.9 06:10:44 17° NNW 06:13:07 46° NE 06:16:25 10° ESE visible
18 Mar -1.9 05:26:21 26° NE 05:26:24 26° NE 05:29:18 10° ESE visible
19 Mar -3.4 06:14:52 29° W 06:16:16 49° SW 06:19:37 10° SE visible
20 Mar -2.9 05:30:13 49° SE 05:30:13 49° SE 05:32:50 10° SE visible
21 Mar -0.4 04:45:28 13° ESE 04:45:28 13° ESE 04:45:53 10° ESE visible
21 Mar -1.9 06:18:29 17° SW 06:19:36 20° SSW 06:22:14 10° SSE visible
22 Mar -1.9 05:33:39 24° S 05:33:39 24° S 05:35:37 10° SSE visible
23 Mar -0.3 04:48:44 11° SE 04:48:44 11° SE 04:48:53 10° SE visible
23 Mar -1.2 06:22:04 10° SW 06:23:06 11° SSW 06:24:09 10° S visible
24 Mar -1.1 05:36:46 13° S 05:36:46 13° S 05:37:52 10° SSE visible
